F5ZQC-13 Weather Reports


Display with metric or nautical units.
time (UTC)temp
F
wind
direction
speed
MPH
gust
MPH
rain 1hr
in
rain 24hr
in
rain mn
in
humidity
%
barometer
mb
20260901034439 288 292 5.0 6.0 0.00 0.00 0.00 49 5318.5
20260901034237 -27 337 5.0 127.0 0.00 0.00 0.00 50 5318.5
20260901033935 715 292 127.0 127.0 0.00 0.00 0.00 50 4420.8
20260901033640 288 0 0.0 0.0 0.00 0.00 0.00 50 5318.5
20260901033439 49 292 0.0 124.0 0.00 0.00 0.00 50 5318.5
20260901033135 584 292 124.0 124.0 0.00 0.00 0.00 49 5318.5
20260901032743 288 315 0.0 4.0 0.00 0.00 0.00 49 4010.3
20260901032538 -27 292 3.0 126.0 0.00 0.00 0.00 49 5318.5
20260901032340 -31 348 3.0 126.0 0.00 0.00 0.00 49 5318.5
20260901032235 584 281 126.0 126.0 0.00 0.00 0.00 49 5318.5
20260901032155 -52 292 2.0 3.0 0.00 0.00 0.00 49 5318.5
20260901031751 32 292 3.0 3.0 0.00 0.00 0.00 48 5318.5
20260901031322 327 315 2.0 3.0 0.00 0.00 0.00 48 5318.5
20260901030918 -27 292 3.0 126.0 0.00 0.00 0.00 48 5318.5
20260901030717 -31 281 2.0 126.0 0.00 0.00 0.00 47 5318.5
20260901030523 327 303 3.0 3.0 0.00 0.00 0.00 48 5318.5
20260901030322 715 315 2.0 3.0 0.00 0.00 0.00 48 4420.8
20260901025749 -52 337 1.0 2.0 0.00 0.00 0.00 47 5318.5
20260901025549 -90 315 0.0 1.0 0.00 0.00 0.00 47 5318.5
20260901024943 715 337 1.0 1.0 0.00 0.00 0.00 47 4420.8
20260901024821 -90 225 1.0 1.0 0.00 0.00 0.00 47 5318.5
20260901024618 32 225 0.0 1.0 0.00 0.00 0.00 47 5318.5
20260901024415 973 225 0.0 0.0 0.00 0.00 0.00 47 5318.5
20260901024215 584 292 0.0 0.0 0.00 0.00 0.00 48 5318.5
20260901023827 32 315 1.0 1.0 0.00 0.00 0.00 46 5318.5
20260901023148 288 337 1.0 3.0 0.00 0.00 0.00 46 5318.5
20260901022945 -27 337 3.0 127.0 0.00 0.00 0.00 44 403.3
20260901022613 715 292 3.0 4.0 0.00 0.00 0.00 46 4420.8
20260901022408 -31 337 2.0 4.0 0.00 0.00 0.00 47 5318.5
20260901022003 973 337 2.0 2.0 0.00 0.00 0.00 46 5318.5
20260901021802 715 292 0.0 0.0 0.00 0.00 0.00 47 1799.4
20260901021147 973 315 3.0 3.0 0.00 0.00 0.00 45 5318.5
20260901020711 288 292 3.0 4.0 0.00 0.00 0.00 46 5318.5
20260901020207 584 337 127.0 127.0 0.00 0.00 0.00 46 5318.5
20260901020151 715 225 4.0 4.0 0.00 0.00 0.00 46 1799.4
20260901015949 288 225 3.0 4.0 0.00 0.00 0.00 46 403.3
20260901015747 715 225 3.0 127.0 0.00 0.00 0.00 46 1799.4
20260901015447 715 225 127.0 127.0 0.00 0.00 0.00 46 4420.8
20260901014446 -90 303 0.0 3.0 0.00 0.00 0.00 45 5318.5
20260901012939 715 225 3.0 3.0 0.00 0.00 0.00 45 1799.4
20260901012918 49 225 3.0 3.0 0.00 0.00 0.00 46 5318.5
20260901012718 288 348 2.0 3.0 0.00 0.00 0.00 45 5318.5
20260901012312 -31 337 3.0 127.0 0.00 0.00 0.00 46 5318.5
20260901012211 584 337 127.0 127.0 0.00 0.00 0.00 45 5318.5
20260901012016 288 337 3.0 4.0 0.00 0.00 0.00 43 5318.5
20260901011612 -31 348 3.0 127.0 0.00 0.00 0.00 45 5318.5
20260901011511 42 337 127.0 127.0 0.00 0.00 0.00 46 5318.5
20260901011320 715 337 3.0 3.0 0.00 0.00 0.00 46 1799.4
20260901011118 -27 348 3.0 126.0 0.00 0.00 0.00 46 5318.5
20260901010916 -31 337 3.0 126.0 0.00 0.00 0.00 45 5318.5
20260901010815 584 337 126.0 126.0 0.00 0.00 0.00 46 5318.5
20260901010051 233 292 3.0 4.0 0.00 0.00 0.00 45 5318.5
20260901005441 -27 337 3.0 127.0 0.00 0.00 0.00 45 5318.5
20260901004954 715 337 3.0 4.0 0.00 0.00 0.00 45 1799.4
20260901004549 973 281 3.0 4.0 0.00 0.00 0.00 46 5318.5
20260901004137 288 337 3.0 4.0 0.00 0.00 0.00 45 5318.5
20260901003734 715 337 5.0 128.0 0.00 0.00 0.00 45 1799.4
20260901003632 715 337 128.0 128.0 0.00 0.00 0.00 45 4420.8
20260901002936 715 292 5.0 129.0 0.00 0.00 0.00 46 4420.7
20260901002608 -31 292 5.0 6.0 0.00 0.00 0.00 45 5318.5
20260901002401 -27 292 6.0 129.0 0.00 0.00 0.00 45 5318.5
20260901001931 327 348 5.0 6.0 0.00 0.00 0.00 45 5318.5
20260901001729 288 315 5.0 6.0 0.00 0.00 0.00 46 5318.5
20260901001527 -31 326 6.0 128.0 0.00 0.00 0.00 47 5318.5
20260901001325 -31 292 5.0 128.0 0.00 0.00 0.00 46 4010.3
20260901001224 584 337 128.0 128.0 0.00 0.00 0.00 45 5318.5
20260901000814 -31 315 6.0 131.0 0.00 0.00 0.00 47 5318.5
20260901000712 584 281 131.0 131.0 0.00 0.00 0.00 47 5318.5
20260901000534 715 337 5.0 5.0 0.00 0.00 0.00 46 1799.4
20260901000425 -90 281 6.0 7.0 0.00 0.00 0.00 46 5318.5
20260901000227 32 326 6.0 7.0 0.00 0.00 0.00 46 5318.5
20260901000021 973 315 7.0 7.0 0.00 0.00 0.00 47 5318.5
20260831235548 715 326 5.0 8.0 0.00 0.00 0.00 47 1799.4
20260831235352 32 281 6.0 8.0 0.00 0.00 0.00 47 5318.5
20260831235144 973 281 7.0 8.0 0.00 0.00 0.00 47 5318.5
20260831234944 584 348 7.0 7.0 0.00 0.00 0.00 46 5318.5
20260831234821 714 292 7.0 8.0 0.00 0.00 0.00 47 4420.7
20260831234618 288 292 6.0 8.0 0.00 0.00 0.00 46 5321.0
20260831234214 -31 303 7.0 130.0 0.00 0.00 0.00 46 5318.5
20260831233925 715 315 6.0 7.0 0.00 0.00 0.00 46 1799.4
20260831233521 715 292 6.0 8.0 0.00 0.00 0.00 47 1799.4
20260831233319 327 348 5.0 8.0 0.00 0.00 0.00 46 5318.5
20260831232559 715 337 6.0 8.0 0.00 0.00 0.00 47 1799.4
20260831231849 584 292 130.0 130.0 0.00 0.00 0.00 47 5318.5
20260831231816 -90 292 7.0 9.0 0.00 0.00 0.00 46 5318.5
20260831231613 32 292 8.0 9.0 0.00 0.00 0.00 46 5318.5
20260831231409 973 281 8.0 9.0 0.00 0.00 0.00 47 5318.5
20260831231208 584 292 7.0 7.0 0.00 0.00 0.00 46 5318.5
20260831231014 584 326 8.0 8.0 0.00 0.00 0.00 47 5318.5
20260831230924 -90 303 9.0 9.0 0.00 0.00 0.00 47 5318.5
20260831230518 973 292 9.0 9.0 0.00 0.00 0.00 46 5318.5
20260831230316 584 326 8.0 8.0 0.00 0.00 0.00 47 5318.5
20260831230203 715 292 8.0 9.0 0.00 0.00 0.00 45 1799.4
20260831230003 272 292 8.0 9.0 0.00 0.00 0.00 47 5318.5
20260831225358 288 292 9.0 10.0 0.00 0.00 0.00 46 5318.5
20260831224952 -31 281 7.0 133.0 0.00 0.00 0.00 46 5318.5
20260831224640 288 292 8.0 9.0 0.00 0.00 0.00 47 5318.5
20260831224438 -27 292 8.0 132.0 0.00 0.00 0.00 47 5318.5
20260831224236 -31 292 8.0 132.0 0.00 0.00 0.00 46 5318.5
20260831223931 288 292 8.0 11.0 0.00 0.00 0.00 47 5318.5
20260831223302 288 292 5.0 9.0 0.00 0.00 0.00 47 5318.5
20260831222901 715 303 9.0 131.0 0.00 0.00 0.00 47 1799.3
20260831222712 715 292 8.0 9.0 0.00 0.00 0.00 47 1799.1
20260831222511 288 292 7.0 8.0 0.00 0.00 0.00 45 5318.5
20260831222308 715 281 6.0 131.0 0.00 0.00 0.00 46 1799.4
20260831222005 584 337 131.0 131.0 0.00 0.00 0.00 46 5318.5
20260831221529 -25 292 7.0 8.0 0.00 0.00 0.00 47 5318.5
20260831220721 -14 292 7.0 9.0 0.00 0.00 0.00 45 5321.0
20260831220316 715 292 8.0 8.0 0.00 0.00 0.00 46 4420.8
20260831215711 584 303 5.0 5.0 0.00 0.00 0.00 47 5318.5
20260831215640 -31 337 6.0 7.0 0.00 0.00 0.00 47 5318.5
20260831215439 715 303 6.0 7.0 0.00 0.00 0.00 47 1799.3
20260831215236 -27 337 5.0 129.0 0.00 0.00 0.00 46 5318.5
20260831215034 -31 292 4.0 129.0 0.00 0.00 0.00 47 5318.5
20260831214932 584 303 129.0 129.0 0.00 0.00 0.00 47 5318.5
20260831214847 -31 326 5.0 8.0 0.00 0.00 0.00 47 5318.5
20260831214443 -25 292 8.0 10.0 0.00 0.00 0.00 47 5318.5
20260831214241 715 292 9.0 10.0 0.00 0.00 0.00 47 1799.4
20260831213431 -52 292 7.0 7.0 0.00 0.00 0.00 46 5318.5
20260831213229 -90 315 4.0 7.0 0.00 0.00 0.00 46 5318.5
20260831212623 584 348 5.0 5.0 0.00 0.00 0.00 46 5318.5
20260831212546 -20 315 5.0 7.0 0.00 0.00 0.00 46 5318.5
20260831211937 715 292 4.0 7.0 0.00 0.00 0.00 46 4420.9
20260831211733 -90 315 4.0 7.0 0.00 0.00 0.00 45 5318.5
20260831211531 32 236 7.0 7.0 0.00 0.00 0.00 46 5318.5
20260831210845 288 292 5.0 7.0 0.00 0.00 0.00 46 5318.5
20260831210643 -31 315 6.0 129.0 0.00 0.00 0.00 46 5318.5
20260831210441 -31 292 6.0 129.0 0.00 0.00 0.00 47 5318.5
20260831205640 584 281 7.0 7.0 0.00 0.00 0.00 45 5318.5
20260831205459 -90 337 7.0 8.0 0.00 0.00 0.00 46 5318.5
20260831205257 32 315 5.0 8.0 0.00 0.00 0.00 46 5318.5
20260831204854 584 225 7.0 7.0 0.00 0.00 0.00 46 5318.5
20260831204728 -90 315 5.0 6.0 0.00 0.00 0.00 45 5318.5
20260831204526 -31 348 5.0 7.0 0.00 0.00 0.00 45 5318.5
20260831203711 32 337 5.0 7.0 0.00 0.00 0.00 43 5318.5
20260831203509 973 337 4.0 7.0 0.00 0.00 0.00 44 5318.5
20260831203307 715 326 5.0 5.0 0.00 0.00 0.00 44 4420.8
20260831203008 715 303 5.0 6.0 0.00 0.00 0.00 45 1799.4
20260831202805 973 303 3.0 4.0 0.00 0.00 0.00 42 5318.5
20260831202526 715 303 4.0 5.0 0.00 0.00 0.00 44 4420.6
20260831202122 715 315 4.0 128.0 0.00 0.00 0.00 42 1799.1
20260831201920 -31 337 5.0 128.0 0.00 0.00 0.00 44 5318.5
20260831201833 715 315 128.0 128.0 0.00 0.00 0.00 44 4420.6
20260831201544 715 292 4.0 7.0 0.00 0.00 0.00 44 1799.4
20260831201342 -27 337 5.0 127.0 0.00 0.00 0.00 44 5321.1
20260831201040 715 292 127.0 127.0 0.00 0.00 0.00 44 1799.4
20260831200923 288 292 5.0 6.0 0.00 0.00 0.00 44 4010.3
20260831200519 -31 315 6.0 126.0 0.00 0.00 0.00 45 5318.5
20260831200158 32 292 3.0 6.0 0.00 0.00 0.00 45 5318.5
20260831195755 584 315 4.0 4.0 0.00 0.00 0.00 43 4010.3
20260831195656 327 292 5.0 6.0 0.00 0.00 0.00 45 5318.5
20260831195454 288 315 6.0 6.0 0.00 0.00 0.00 43 5318.5
20260831195253 -27 337 4.0 128.0 0.00 0.00 0.00 45 5318.5
20260831194949 715 337 128.0 128.0 0.00 0.00 0.00 43 4420.6
20260831194650 32 315 4.0 7.0 0.00 0.00 0.00 44 5318.5
20260831194448 973 337 5.0 7.0 0.00 0.00 0.00 44 5318.5
20260831194247 584 303 6.0 6.0 0.00 0.00 0.00 44 5318.5
20260831194156 -90 337 6.0 7.0 0.00 0.00 0.00 45 5318.5
20260831193954 32 337 5.0 7.0 0.00 0.00 0.00 45 5318.5
20260831193752 973 292 4.0 7.0 0.00 0.00 0.00 44 5318.5
20260831193550 584 326 6.0 6.0 0.00 0.00 0.00 45 5321.1
20260831193154 -27 337 5.0 130.0 0.00 0.00 0.00 45 5318.5
20260831192739 178 303 4.0 7.0 0.00 0.00 0.00 44 5318.5
20260831192536 715 337 5.0 7.0 0.00 0.00 0.00 44 1799.4
20260831192334 233 315 7.0 7.0 0.00 0.00 0.00 45 5318.5
20260831192016 288 315 6.0 6.0 0.00 0.00 0.00 45 5318.5
20260831191929 288 315 6.0 6.0 0.00 0.00 0.00 45 5318.5
20260831191727 -27 337 3.0 129.0 0.00 0.00 0.00 44 5318.5
20260831191235 288 337 3.0 6.0 0.00 0.00 0.00 44 5318.5
20260831191033 715 292 6.0 129.0 0.00 0.00 0.00 44 1799.3
20260831190831 -31 337 4.0 129.0 0.00 0.00 0.00 45 5318.5
20260831190700 327 337 5.0 6.0 0.00 0.00 0.00 45 5318.5
20260831190456 288 292 4.0 6.0 0.00 0.00 0.00 45 5318.5
20260831185951 584 337 128.0 128.0 0.00 0.00 0.00 44 5318.5
20260831185609 157 337 5.0 6.0 0.00 0.00 0.00 44 5318.5
20260831185406 118 315 5.0 6.0 0.00 0.00 0.00 44 5318.5
20260831185001 173 292 4.0 6.0 0.00 0.00 0.00 44 5318.5
20260831184557 228 337 3.0 7.0 0.00 0.00 0.00 44 5318.5
20260831184355 -31 337 3.0 6.0 0.00 0.00 0.00 44 5318.5
20260831184153 715 303 5.0 6.0 0.00 0.00 0.00 44 1799.4
20260831183952 -27 337 4.0 5.0 0.00 0.00 0.00 44 5318.5
20260831183749 -31 337 3.0 5.0 0.00 0.00 0.00 44 5318.5
20260831183547 -22 337 3.0 6.0 0.00 0.00 0.00 44 5318.5
20260831183345 -26 337 4.0 6.0 0.00 0.00 0.00 44 5318.5
20260831182940 715 337 4.0 5.0 0.00 0.00 0.00 44 1799.4
20260831182738 -11 292 3.0 7.0 0.00 0.00 0.00 43 5318.5
20260831182536 -15 337 5.0 7.0 0.00 0.00 0.00 44 5318.5
20260831182335 -56 292 5.0 5.0 0.00 0.00 0.00 44 4010.3
20260831182133 -95 337 5.0 6.0 0.00 0.00 0.00 43 5318.5
20260831181930 -14 337 5.0 6.0 0.00 0.00 0.00 44 5318.5
20260831181526 538 337 6.0 6.0 0.00 0.00 0.00 43 5318.5
20260831181122 109 337 4.0 7.0 0.00 0.00 0.00 43 5318.5
20260831180920 715 292 5.0 7.0 0.00 0.00 0.00 43 4420.8
20260831180717 49 315 5.0 6.0 0.00 0.00 0.00 43 5318.5
20260831180515 258 292 4.0 5.0 0.00 0.00 0.00 43 5318.5
20260831175707 -28 337 6.0 6.0 0.00 0.00 0.00 43 5318.5
20260831174657 715 292 2.0 6.0 0.00 0.00 0.00 43 1799.4
20260831174455 -12 337 6.0 7.0 0.00 0.00 0.00 42 5318.5
20260831174253 715 337 4.0 7.0 0.00 0.00 0.00 42 1799.4
20260831172838 998 225 6.0 9.0 0.00 0.00 0.00 42 5318.5
20260831172638 193 225 6.0 9.0 0.00 0.00 0.00 41 5318.5
20260831172434 155 225 4.0 9.0 0.00 0.00 0.00 42 5318.5
20260831172033 210 225 6.0 8.0 0.00 0.00 0.00 42 5318.5
20260831171828 304 337 5.0 9.0 0.00 0.00 0.00 42 5318.5
20260831171224 320 337 6.0 8.0 0.00 0.00 0.00 41 5318.5
20260831171029 -31 337 5.0 8.0 0.00 0.00 0.00 42 5318.5
20260831170615 -18 225 4.0 9.0 0.00 0.00 0.00 41 5318.5
20260831170009 -16 225 6.0 7.0 0.00 0.00 0.00 42 5318.5
20260831165605 -11 225 3.0 6.0 0.00 0.00 0.00 42 5318.5
20260831164959 354 337 5.0 7.0 0.00 0.00 0.00 41 5318.5
20260831164151 145 337 4.0 7.0 0.00 0.00 0.00 42 5318.5
20260831163544 715 337 7.0 9.0 0.00 0.00 0.00 42 1799.4
20260831163346 256 337 5.0 6.0 0.00 0.00 0.00 42 5318.5
20260831163141 -30 337 5.0 6.0 0.00 0.00 0.00 43 5318.5
20260831162938 311 225 5.0 6.0 0.00 0.00 0.00 42 5318.5
20260831162131 -23 225 6.0 8.0 0.00 0.00 0.00 42 5321.1
20260831161323 49 337 5.0 8.0 0.00 0.00 0.00 43 5318.5
20260831161122 715 337 7.0 7.0 0.00 0.00 0.00 42 1799.4
20260831155312 272 225 5.0 6.0 0.00 0.00 0.00 44 5318.5
20260831154856 327 337 6.0 7.0 0.00 0.00 0.00 43 1714.1
20260831154653 715 225 4.0 7.0 0.00 0.00 0.00 44 1799.4
20260831154451 -27 337 7.0 126.0 0.00 0.00 0.00 44 5318.5
20260831154146 -31 225 126.0 126.0 0.00 0.00 0.00 44 5318.5
20260831153958 49 315 7.0 7.0 0.00 0.00 0.00 44 5318.5
20260831153353 584 337 4.0 4.0 0.00 0.00 0.00 45 5318.5
20260831153114 -31 337 4.0 7.0 0.00 0.00 0.00 44 5318.5
20260831152912 -27 337 5.0 129.0 0.00 0.00 0.00 44 5318.5
20260831152708 -31 337 6.0 129.0 0.00 0.00 0.00 44 5318.5
20260831152511 327 337 6.0 8.0 0.00 0.00 0.00 43 5318.5
20260831152107 -27 337 7.0 129.0 0.00 0.00 0.00 44 5318.5
20260831151905 -31 337 6.0 129.0 0.00 0.00 0.00 44 5318.5
20260831151739 715 337 5.0 5.0 0.00 0.00 0.00 42 1799.4
20260831151030 584 337 129.0 129.0 0.00 0.00 0.00 44 5318.5
20260831150649 -27 337 6.0 127.0 0.00 0.00 0.00 44 5318.5
20260831150342 -31 337 127.0 127.0 0.00 0.00 0.00 43 5318.5
20260831150154 715 337 5.0 7.0 0.00 0.00 0.00 42 4420.7
20260831145951 -27 337 6.0 129.0 0.00 0.00 0.00 44 5318.5
20260831145647 584 337 129.0 129.0 0.00 0.00 0.00 44 5318.5
20260831145457 715 337 3.0 7.0 0.00 0.00 0.00 42 4420.8
20260831145054 -14 337 5.0 7.0 0.00 0.00 0.00 43 5318.5
20260831144851 -52 326 5.0 7.0 0.00 0.00 0.00 43 5318.5
20260831144648 -90 348 3.0 6.0 0.00 0.00 0.00 43 5318.5
20260831144447 32 337 6.0 6.0 0.00 0.00 0.00 44 5318.5
20260831144244 715 225 4.0 6.0 0.00 0.00 0.00 43 1799.4
20260831143900 288 337 6.0 6.0 0.00 0.00 0.00 43 5318.5
20260831143658 715 337 5.0 129.0 0.00 0.00 0.00 45 4420.6
20260831143454 -31 337 7.0 129.0 0.00 0.00 0.00 44 5318.5
20260831143156 288 337 5.0 6.0 0.00 0.00 0.00 44 5318.5
20260831142751 -31 337 4.0 130.0 0.00 0.00 0.00 44 5318.5
20260831142649 584 337 130.0 130.0 0.00 0.00 0.00 40 5318.5
20260831142537 715 337 5.0 5.0 0.00 0.00 0.00 44 4420.8
20260831142335 288 337 4.0 6.0 0.00 0.00 0.00 43 5318.5
20260831141933 -31 337 5.0 128.0 0.00 0.00 0.00 43 5318.5
20260831141829 32 337 128.0 128.0 0.00 0.00 0.00 43 5318.5
20260831141745 -14 337 2.0 5.0 0.00 0.00 0.00 45 5318.5
20260831141542 -52 337 2.0 5.0 0.00 0.00 0.00 45 5318.5
20260831141340 -90 337 3.0 5.0 0.00 0.00 0.00 43 5318.5
20260831140735 584 337 3.0 3.0 0.00 0.00 0.00 44 5321.1
20260831140513 -90 337 4.0 6.0 0.00 0.00 0.00 44 5318.5
20260831135908 584 225 1.0 1.0 0.00 0.00 0.00 45 5318.5
20260831135508 272 337 3.0 4.0 0.00 0.00 0.00 44 5318.5
20260831135106 327 225 2.0 4.0 0.00 0.00 0.00 44 5318.5
20260831134901 288 337 2.0 4.0 0.00 0.00 0.00 45 5318.5
20260831134703 -27 337 4.0 127.0 0.00 0.00 0.00 45 5318.5
20260831133938 715 337 1.0 125.0 0.00 0.00 0.00 44 1799.3
20260831133902 715 337 1.0 125.0 0.00 0.00 0.00 44 1799.3
20260831133700 -31 292 3.0 125.0 0.00 0.00 0.00 44 5318.5
20260831133559 584 315 125.0 125.0 0.00 0.00 0.00 44 5318.5
20260831133421 -90 270 1.0 3.0 0.00 0.00 0.00 44 5318.5
20260831133224 32 270 2.0 3.0 0.00 0.00 0.00 44 5318.5
20260831133017 973 270 2.0 2.0 0.00 0.00 0.00 44 5318.5
20260831132815 584 270 1.0 1.0 0.00 0.00 0.00 44 5318.5
20260831132426 288 270 1.0 2.0 0.00 0.00 0.00 44 5318.5
20260831132224 -27 270 0.0 125.0 0.00 0.00 0.00 44 5318.5
20260831132021 -31 270 2.0 125.0 0.00 0.00 0.00 44 5318.5
20260831131920 32 270 125.0 125.0 0.00 0.00 0.00 44 5320.2
20260831131446 124 315 1.0 3.0 0.00 0.00 0.00 45 5318.5
20260831131244 106 270 1.0 3.0 0.00 0.00 0.00 45 5318.5
20260831130436 216 315 1.0 5.0 0.00 0.00 0.00 44 5318.5
20260831130032 272 270 4.0 4.0 0.00 0.00 0.00 44 5318.5
20260831125830 715 270 2.0 3.0 0.00 0.00 0.00 44 1799.4
20260831125426 288 270 6.0 7.0 0.00 0.00 0.00 44 5318.5
20260831124849 124 315 4.0 7.0 0.00 0.00 0.00 43 5318.5
20260831124647 715 270 4.0 7.0 0.00 0.00 0.00 43 1799.4
20260831124445 714 270 7.0 7.0 0.00 0.00 0.00 44 4420.8
20260831124244 161 292 5.0 5.0 0.00 0.00 0.00 44 5318.5
20260831123839 216 315 2.0 4.0 0.00 0.00 0.00 46 5318.5
20260831123714 178 315 2.0 3.0 0.00 0.00 0.00 45 5318.5
20260831123638 178 315 2.0 3.0 0.00 0.00 0.00 45 5318.5
20260831123436 272 270 0.0 3.0 0.00 0.00 0.00 46 5318.5
20260831123238 233 315 2.0 4.0 0.00 0.00 0.00 45 5318.5
20260831122425 -31 326 3.0 128.0 0.00 0.00 0.00 49 5318.5
20260831122323 715 315 128.0 128.0 0.00 0.00 0.00 50 1799.4
20260831121915 -10 315 7.0 7.0 0.00 0.00 0.00 51 5318.5
20260831121714 -14 337 2.0 6.0 0.00 0.00 0.00 53 5318.5
20260831121511 715 337 3.0 6.0 0.00 0.00 0.00 53 1799.4
20260831120906 973 337 6.0 6.0 0.00 0.00 0.00 55 5318.5
20260831120645 327 337 5.0 7.0 0.00 0.00 0.00 55 5318.5
20260831120445 288 337 5.0 7.0 0.00 0.00 0.00 55 5318.5
20260831115937 584 337 128.0 128.0 0.00 0.00 0.00 56 5318.5
20260831115742 32 337 5.0 6.0 0.00 0.00 0.00 56 5318.5
20260831115541 973 337 4.0 6.0 0.00 0.00 0.00 56 5318.5
20260831115018 -13 337 4.0 8.0 0.00 0.00 0.00 55 5318.5
20260831114817 -42 337 3.0 8.0 0.00 0.00 0.00 56 5318.5
20260831114614 -81 337 5.0 7.0 0.00 0.00 0.00 56 5318.5
20260831114212 106 225 6.0 7.0 0.00 0.00 0.00 56 5321.1
20260831114008 676 337 4.0 7.0 0.00 0.00 0.00 56 5318.5
20260831113402 -31 337 3.0 5.0 0.00 0.00 0.00 56 5318.5
20260831113200 715 337 3.0 4.0 0.00 0.00 0.00 56 4420.6
20260831113057 714 225 3.0 5.0 0.00 0.00 0.00 56 4420.7
20260831112958 714 225 3.0 5.0 0.00 0.00 0.00 56 4420.7
20260831112757 714 337 3.0 5.0 0.00 0.00 0.00 56 4420.7
20260831112351 288 348 4.0 7.0 0.00 0.00 0.00 57 5318.5
20260831112149 -27 225 3.0 129.0 0.00 0.00 0.00 57 5318.5
20260831111949 -31 337 3.0 129.0 0.00 0.00 0.00 57 403.4
20260831111846 49 337 129.0 129.0 0.00 0.00 0.00 57 5318.5
20260831111514 124 337 3.0 5.0 0.00 0.00 0.00 57 5318.5
20260831111316 106 337 5.0 5.0 0.00 0.00 0.00 57 5318.5
20260831110706 715 337 3.0 4.0 0.00 0.00 0.00 58 1799.3
20260831110504 216 315 2.0 3.0 0.00 0.00 0.00 58 5318.5
20260831105858 233 270 2.0 3.0 0.00 0.00 0.00 58 5318.5
20260831105453 288 315 2.0 4.0 0.00 0.00 0.00 58 5318.5
20260831105255 -27 292 2.0 126.0 0.00 0.00 0.00 58 5318.5
20260831104948 715 270 126.0 126.0 0.00 0.00 0.00 58 1799.4
20260831104830 676 270 4.0 4.0 0.00 0.00 0.04 58 5318.5
20260831103820 272 225 0.0 2.0 0.00 0.00 0.04 59 5318.5
20260831103618 233 225 1.0 2.0 0.00 0.00 0.04 58 5318.5
20260831103416 327 337 1.0 2.0 0.00 0.00 0.04 59 5318.5
20260831103012 -27 292 0.0 1.0 0.00 0.00 0.04 59 5318.5
20260831102613 -21 225 0.0 2.0 0.00 0.00 0.04 59 5318.5
20260831102405 -25 337 0.0 2.0 0.00 0.00 0.04 59 5318.5
20260831102002 -20 315 0.0 1.0 0.00 0.00 0.04 58 5318.5
20260831101557 715 315 1.0 2.0 0.00 0.00 0.04 58 1799.4
20260831101356 -52 270 1.0 2.0 0.00 0.00 0.03 58 5318.5
20260831100952 32 315 1.0 1.0 0.00 0.00 0.03 58 5318.5
20260831095333 715 315 1.0 3.0 0.00 0.00 0.03 61 4420.8
20260831094928 265 315 2.0 3.0 0.00 0.00 0.03 61 5318.5
20260831094322 -24 337 0.0 3.0 0.00 0.00 0.03 62 5318.5
20260831093311 714 337 2.0 4.0 0.00 0.00 0.03 62 4420.7
20260831092907 -11 337 1.0 4.0 0.00 0.00 0.03 62 5318.5
20260831092704 -19 315 4.0 4.0 0.00 0.00 0.03 62 5318.5
20260831092502 743 337 4.0 4.0 0.00 0.00 0.03 63 5318.5
20260831092058 129 337 4.0 5.0 0.00 0.00 0.03 62 5318.5
20260831091857 906 326 4.0 6.0 0.00 0.00 0.03 63 5318.5
20260831091455 715 337 1.0 1.0 0.00 0.00 0.03 63 1799.4
20260831090846 295 337 2.0 3.0 0.00 0.00 0.03 63 5318.5
20260831090644 715 337 1.0 3.0 0.00 0.00 0.03 63 1799.3
20260831090241 311 337 2.0 3.0 0.00 0.00 0.03 63 5318.5
20260831085229 715 337 1.0 5.0 0.00 0.00 0.03 63 4420.8
20260831084421 -29 326 5.0 6.0 0.00 0.00 0.03 63 5318.5
20260831084219 715 337 4.0 6.0 0.00 0.00 0.03 63 4420.7
20260831083411 175 315 2.0 5.0 0.00 0.00 0.03 63 5318.5
20260831083007 230 315 4.0 5.0 0.00 0.00 0.03 63 5318.5
20260831082602 285 315 3.0 5.0 0.00 0.00 0.03 63 5321.1
20260831081755 -25 315 4.0 5.0 0.00 0.00 0.03 63 5318.5
20260831081552 715 337 4.0 5.0 0.00 0.00 0.03 63 1799.3
20260831081350 -20 337 4.0 6.0 0.00 0.00 0.03 63 5318.5
20260831080947 -14 337 4.0 4.0 0.00 0.00 0.03 64 5318.5
20260831080339 -13 315 2.0 5.0 0.00 0.00 0.03 63 5318.5
20260831075329 722 315 4.0 6.0 0.00 0.00 0.03 63 5318.5
20260831075127 166 337 4.0 5.0 0.00 0.00 0.03 64 5318.5
20260831074925 127 337 4.0 5.0 0.00 0.00 0.03 64 5321.1
20260831074724 221 315 4.0 5.0 0.00 0.00 0.03 63 5318.5
20260831074319 276 315 4.0 5.0 0.00 0.00 0.03 63 5318.5
20260831074117 237 315 3.0 5.0 0.00 0.00 0.03 63 5318.5
20260831073915 -32 315 3.0 5.0 0.00 0.00 0.03 64 5318.5
20260831073510 -26 315 4.0 6.0 0.00 0.00 0.03 64 5318.5
20260831073108 -21 0 2.0 3.0 0.00 0.00 0.03 63 5318.5
20260831072704 -15 315 3.0 4.0 0.00 0.00 0.03 63 5318.5
20260831072054 715 337 4.0 4.0 0.00 0.00 0.03 64 1799.4
20260831070842 143 0 2.0 5.0 0.00 0.00 0.02 64 5318.5
20260831070641 104 0 2.0 5.0 0.00 0.00 0.02 63 5318.5
20260831070034 715 315 4.0 5.0 0.00 0.00 0.02 63 1799.3
20260831065428 270 303 3.0 5.0 0.00 0.00 0.02 64 5318.5
20260831064823 49 303 2.0 5.0 0.00 0.00 0.02 64 5318.5
20260831064417 -18 292 1.0 6.0 0.00 0.00 0.02 64 5318.5
20260831064215 715 270 2.0 6.0 0.00 0.00 0.02 64 1799.4
20260831063611 -70 315 3.0 4.0 0.00 0.00 0.02 64 1714.1
20260831062154 189 315 2.0 3.0 0.00 0.00 0.01 64 5318.5
20260831061953 150 292 2.0 3.0 0.00 0.00 0.01 63 5318.5
20260831061754 244 315 3.0 3.0 0.00 0.00 0.01 63 5318.5
20260831061552 205 315 2.0 2.0 0.00 0.00 0.01 63 5318.5
20260831060336 -28 270 4.0 4.0 0.00 0.00 0.01 62 5318.5
20260831055325 715 315 0.0 2.0 0.00 0.00 0.01 62 1799.4
20260831055124 715 337 1.0 2.0 0.00 0.00 0.01 63 1799.4
20260831054922 -24 270 0.0 0.0 0.00 0.00 0.01 63 5318.5
20260831054720 697 315 0.0 1.0 0.00 0.00 0.01 63 5318.5
20260831054315 124 337 2.0 3.0 0.00 0.00 0.01 63 5318.5
20260831054113 715 315 2.0 2.0 0.00 0.00 0.01 62 1799.1
20260831053305 196 315 1.0 2.0 0.00 0.00 0.01 63 5318.5
20260831052901 251 270 1.0 4.0 0.00 0.00 0.01 64 5318.5
20260831052457 306 270 3.0 3.0 0.00 0.00 0.01 64 5318.5
20260831052255 -25 292 2.0 2.0 0.00 0.00 0.01 64 5318.5
20260831051649 32 326 1.0 3.0 0.00 0.00 0.01 63 5318.5
20260831051447 -14 315 0.0 3.0 0.00 0.00 0.01 63 5318.5
20260831051042 -88 0 0.0 4.0 0.00 0.00 0.01 63 5318.5
20260831050841 715 315 1.0 4.0 0.00 0.00 0.01 64 1799.4
20260831050639 49 337 2.0 4.0 0.00 0.00 0.01 63 5318.5
20260831045831 768 315 2.0 3.0 0.00 0.00 0.00 63 5318.5
20260831045426 132 0 0.0 1.0 0.00 0.00 0.00 62 5318.5
20260831045225 226 270 0.0 1.0 0.00 0.00 0.00 62 5318.5
20260831044819 281 292 0.0 2.0 0.00 0.00 0.00 64 5318.5
20260831044617 242 270 2.0 2.0 0.00 0.00 0.00 63 5318.5
20260831044417 -31 315 0.0 3.0 0.00 0.00 0.00 63 5318.5
20260831044215 297 337 3.0 3.0 0.00 0.00 0.00 63 5318.5
20260831044011 -26 270 2.0 2.0 0.00 0.00 0.00 63 5318.5
20260831043809 -30 315 0.0 3.0 0.00 0.00 0.00 63 5318.5
20260831043607 715 303 0.0 5.0 0.00 0.00 0.00 63 1799.4
20260831043408 -24 315 3.0 5.0 0.00 0.00 0.00 63 5318.5
20260831043000 -19 315 4.0 9.0 0.00 0.00 0.00 63 5318.5
20260831042758 -98 337 6.0 6.0 0.00 0.00 0.00 63 5318.5
20260831042355 -42 315 3.0 5.0 0.00 0.00 0.00 63 5318.5
20260831041950 124 0 3.0 6.0 0.00 0.00 0.00 63 5318.5
20260831041748 715 315 2.0 6.0 0.00 0.00 0.00 63 1799.4
20260831041546 676 315 4.0 5.0 0.00 0.00 0.00 63 5318.5
20260831041345 161 315 4.0 6.0 0.00 0.00 0.00 63 5318.5
20260831041143 122 315 4.0 6.0 0.00 0.00 0.00 63 4010.3
20260831040335 233 0 6.0 7.0 0.00 0.00 0.00 63 5318.5
20260831035929 288 0 4.0 4.0 0.00 0.00 0.00 63 5318.5
20260831035424 715 315 128.0 128.0 0.00 0.00 0.00 63 1799.1
20260831035229 178 303 4.0 5.0 0.00 0.00 0.01 62 5318.5
20260831034823 715 315 4.0 5.0 0.00 0.00 0.00 62 1799.1
20260831034620 327 315 2.0 5.0 0.00 0.00 0.00 62 5318.5